Satellite: MET-3/5
Catalog number: 21655
Epoch time:      08325.23405560
Element set:     517
Inclination:      082.5546 deg
RA of node:       354.1338 deg
Eccentricity:    0.0013493
Arg of perigee:   349.7452 deg
Mean anomaly:     010.3391 deg
Mean motion:   13.17017037 rev/day
Decay rate:        5.1e-07 rev/day^2
Epoch rev:           83012
Checksum:              272

Satellite: MET-2/21
Catalog number: 22782
Epoch time:      08325.62518217
Element set:     306
Inclination:      082.5488 deg
RA of node:       347.4693 deg
Eccentricity:    0.0021613
Arg of perigee:   208.0426 deg
Mean anomaly:     151.9576 deg
Mean motion:   13.83630972 rev/day
Decay rate:       -2.7e-07 rev/day^2
Epoch rev:           76876
Checksum:              322

Satellite: OKEAN-4
Catalog number: 23317
Epoch time:      08325.56433185
Element set:     752
Inclination:      082.5382 deg
RA of node:       169.1633 deg
Eccentricity:    0.0021717
Arg of perigee:   336.1349 deg
Mean anomaly:     023.8854 deg
Mean motion:   14.82652836 rev/day
Decay rate:       2.14e-06 rev/day^2
Epoch rev:           76145
Checksum:              306

Satellite: NOAA-14
Catalog number: 23455
Epoch time:      08325.46162502
Element set:     396
Inclination:      098.9316 deg
RA of node:       037.6728 deg
Eccentricity:    0.0010131
Arg of perigee:   065.5200 deg
Mean anomaly:     294.7032 deg
Mean motion:   14.13753490 rev/day
Decay rate:       1.69e-06 rev/day^2
Epoch rev:           71643
Checksum:              290

Satellite: NOAA-15
Catalog number: 25338
Epoch time:      08324.98501351
Element set:     705
Inclination:      098.5696 deg
RA of node:       312.9910 deg
Eccentricity:    0.0009993
Arg of perigee:   311.9815 deg
Mean anomaly:     048.0489 deg
Mean motion:   14.24732910 rev/day
Decay rate:        1.1e-07 rev/day^2
Epoch rev:           54698
Checksum:              325

Satellite: RESURS
Catalog number: 25394
Epoch time:      08325.14862264
Element set:      74
Inclination:      098.3650 deg
RA of node:       001.8481 deg
Eccentricity:    0.0002294
Arg of perigee:   090.8308 deg
Mean anomaly:     269.3134 deg
Mean motion:   14.24175731 rev/day
Decay rate:       -5.0e-08 rev/day^2
Epoch rev:           53864
Checksum:              289

Satellite: FENGYUN1
Catalog number: 25730
Epoch time:      08325.91746882
Element set:     619
Inclination:      098.7395 deg
RA of node:       296.5164 deg
Eccentricity:    0.0022048
Arg of perigee:   080.3887 deg
Mean anomaly:     279.9773 deg
Mean motion:   14.07862863 rev/day
Decay rate:       7.69e-06 rev/day^2
Epoch rev:           49101
Checksum:              356

Satellite: OKEAN-0
Catalog number: 25860
Epoch time:      08324.89126387
Element set:     528
Inclination:      097.7647 deg
RA of node:       308.6776 deg
Eccentricity:    0.0001589
Arg of perigee:   089.6507 deg
Mean anomaly:     270.4885 deg
Mean motion:   14.73545259 rev/day
Decay rate:        3.4e-07 rev/day^2
Epoch rev:           50232
Checksum:              341

Satellite: NOAA-16
Catalog number: 26536
Epoch time:      08325.75434147
Element set:     178
Inclination:      099.1705 deg
RA of node:       318.4706 deg
Eccentricity:    0.0010838
Arg of perigee:   142.8307 deg
Mean anomaly:     217.4101 deg
Mean motion:   14.12501988 rev/day
Decay rate:       -1.3e-07 rev/day^2
Epoch rev:           42087
Checksum:              295

Satellite: NOAA-17
Catalog number: 27453
Epoch time:      08325.46155335
Element set:     183
Inclination:      098.5164 deg
RA of node:       025.4114 deg
Eccentricity:    0.0011856
Arg of perigee:   017.8760 deg
Mean anomaly:     342.2836 deg
Mean motion:   14.24018760 rev/day
Decay rate:       -1.2e-07 rev/day^2
Epoch rev:           33304
Checksum:              280

Satellite: NOAA-18
Catalog number: 28654
Epoch time:      08325.46175690
Element set:     669
Inclination:      098.8846 deg
RA of node:       264.5740 deg
Eccentricity:    0.0013714
Arg of perigee:   230.6595 deg
Mean anomaly:     129.3356 deg
Mean motion:   14.11211931 rev/day
Decay rate:       4.17e-06 rev/day^2
Epoch rev:           18051
Checksum:              318

/EX
SB KEPS @ AMSAT  $ORB08325.M
Orbital Elements  08325.MISC

HR AMSAT ORBITAL ELEMENTS FOR MANNED AND MISCELLANEOUS SATELLITES
FROM WA5QGD FORT WORTH,TX November 20, 2008
Send Subscribe/unsubscribe to KEPS at 
http://www.amsat.org/mailman/listinfo/keps
BID: ORB08325.M
TO ALL RADIO AMATEURS BT

Satellite: HUBBLE
Catalog number: 20580
Epoch time:      08325.46112312
Element set:     266
Inclination:      028.4697 deg
RA of node:       023.9165 deg
Eccentricity:    0.0003980
Arg of perigee:   238.8759 deg
Mean anomaly:     121.1437 deg
Mean motion:   15.00430077 rev/day
Decay rate:       3.46e-06 rev/day^2
Epoch rev:           81847
Checksum:              287

Satellite: PO-34
Catalog number: 25520
Epoch time:      08323.11814862
Element set:     124
Inclination:      028.4607 deg
RA of node:       228.1831 deg
Eccentricity:    0.0005478
Arg of perigee:   162.7209 deg
Mean anomaly:     197.3571 deg
Mean motion:   15.17260056 rev/day
Decay rate:       4.77e-06 rev/day^2
Epoch rev:           55656
Checksum:              299

